Вернуться в каталог

STARLINK-35825

АктивенСвязьVLEO
NORAD 66567·PAYLOAD·🇺🇸 United States

Запущен Nov 21, 2025 с Cape Canaveral Space Force Station

Loading…

Ближайшие Пролёты (ближайшие 24 часа)

TLE

СвежийSource: CelesTrak SupGP

Эпоха: Sep 14, 2026, 22:43 UTC

1 66567C 25268L   26257.94701389 -.00006728  00000+0 -24363-3 0  2578
2 66567  43.0035 357.9494 0001434 268.4359 231.7780 15.27586595    19

Отслеживайте STARLINK-35825 в реальном времени с AllMySat

Download on the App Store